Simultaneous Nadir Overpasses (SNOs) Predictions

Prediction of SNOs between LANDSAT-8 and METOP-A Satellite Orbit:

Table of predicted SNOs for the next 14.0 days since TLE Epoch: 8/8/2020
Index Date (LANDSAT-8) Time (LANDSAT-8) Lat,Lon (LANDSAT-8) SZA (LANDSAT-8 ) Date (METOP-A) Time (METOP-A) Lat,Lon (METOP-A) SZA (METOP-A ) Distance(km) Time Diff (sec)
1 08/08/2020 19:28:00 81.47, -65.52 68.22 08/08/2020 19:26:55 81.46, -65.68 68.17 2.63 65
2 08/08/2020 20:17:27 -81.46, 102.01 111.79 08/08/2020 20:17:35 -81.46, 101.89 111.80 2.14 8
3 08/11/2020 15:02:16 81.46, 0.77 69.04 08/11/2020 15:01:16 81.46, 0.74 69.01 0.50 60
4 08/11/2020 15:51:43 -81.46, 168.34 110.97 08/11/2020 15:51:56 -81.46, 168.35 110.96 0.29 13
5 08/14/2020 10:36:32 81.45, 67.04 69.88 08/14/2020 10:35:37 81.46, 67.15 69.87 1.91 55
6 08/14/2020 11:25:59 -81.45,-125.35 110.12 08/14/2020 11:26:17 -81.45,-125.21 110.09 2.34 18
7 08/17/2020 06:10:46 81.46, 133.68 70.81 08/17/2020 06:09:57 81.46, 133.54 70.77 2.28 49
8 08/17/2020 07:00:13 -81.46, -58.68 109.18 08/17/2020 07:00:37 -81.45, -58.77 109.19 1.97 24
9 08/20/2020 01:45:02 81.45,-160.10 71.71 08/20/2020 01:44:18 81.46,-160.07 71.70 0.77 44
